EW8689 Weather Reports


time (UTC)temp
F
wind
direction
speed
knots
gust
knots
rain 1hr
in
rain 24hr
in
rain mn
in
humidity
%
barometer
mb
20260507051539 49 0.0 0.0 0.01 0.63 0.01 96 1012.5
20260507050034 49 0.0 0.0 0.01 0.63 0.01 96 1012.4
20260507044546 49 0.0 0.0 0.00 0.72 0.00 96 1012.3
20260507043026 49 0.0 0.0 0.00 0.72 0.00 95 1012.3
20260507041521 49 0.0 0.0 0.00 0.72 0.00 95 1012.3
20260507040016 49 0.0 0.0 0.00 0.72 0.00 96 1012.2
20260507034512 49 0.0 0.0 0.00 0.80 0.00 96 1012.1
20260507033008 48 0.0 0.0 0.00 0.80 0.00 95 1012.1
20260507031503 48 0.0 0.0 0.00 0.80 0.00 95 1012.0
20260507030104 48 0.0 0.0 0.00 0.80 0.00 95 1012.0
20260507024559 48 0.0 0.0 0.00 0.83 0.00 95 1012.1
20260507023053 48 0.0 0.0 0.00 0.83 0.00 95 1012.0
20260507021548 48 0.0 0.0 0.00 0.83 0.00 95 1011.9
20260507020049 48 0.0 0.0 0.00 0.83 0.00 95 1011.8
20260507014537 49 0.0 0.0 0.00 0.83 0.00 95 1011.7
20260507013033 49 0.0 0.0 0.00 0.83 0.00 95 1011.7
20260507011529 49 0.0 0.0 0.00 0.83 0.00 95 1011.6
20260507010028 49 0.0 0.0 0.00 0.83 0.00 95 1011.7
20260507004530 50 0.0 0.0 0.00 0.83 0.00 95 1011.6
20260507003021 50 0.0 0.0 0.00 0.83 0.00 95 1011.7
20260507001521 50 0.0 0.0 0.00 0.83 0.00 95 1011.7
20260507000012 50 0.0 0.0 0.00 0.83 0.00 95 1011.5
20260506234507 50 0.0 0.0 0.00 0.83 0.00 95 1011.4
20260506233102 50 0.0 0.0 0.00 0.83 0.00 94 1011.5
20260506231554 50 0.0 0.0 0.00 0.83 0.00 94 1011.5
20260506230054 50 0.0 0.0 0.00 0.83 0.00 94 1011.5
20260506224559 50 0.0 0.0 0.00 0.83 0.00 94 1011.4
20260506223042 50 0.0 0.0 0.00 0.83 0.00 94 1011.3
20260506221537 50 0.0 0.0 0.00 0.83 0.00 94 1011.3
20260506220037 50 0.0 0.0 0.00 0.83 0.00 94 1011.2
20260506214528 50 0.0 0.0 0.00 0.97 0.83 94 1011.1
20260506213024 50 0.0 0.0 0.00 0.97 0.83 94 1011.1
20260506211519 50 0.0 0.0 0.00 0.97 0.83 94 1011.1
20260506210021 50 0.0 0.0 0.00 0.97 0.83 93 1011.1
20260506204513 50 0.0 0.0 0.00 1.05 0.83 93 1010.9
20260506203007 50 0.0 0.0 0.00 1.05 0.83 93 1010.8
20260506201503 50 0.0 0.0 0.00 1.05 0.83 92 1010.6
20260506200058 51 0.0 0.0 0.01 1.05 0.83 92 1010.6
20260506194604 51 0.0 0.0 0.02 1.05 0.83 92 1010.4
20260506193054 51 0.0 0.0 0.04 1.05 0.83 92 1010.1
20260506191546 51 0.0 0.0 0.05 1.05 0.83 92 1009.8
20260506190043 51 0.0 0.0 0.05 1.04 0.82 91 1009.8
20260506184537 51 0.0 0.0 0.03 1.02 0.80 89 1009.8
20260506183033 52 0.0 0.0 0.07 1.01 0.79 88 1009.8
20260506181533 53 0.0 0.0 0.06 1.00 0.78 88 1009.7
20260506180026 54 0.0 0.0 0.06 0.99 0.77 86 1009.3
20260506174519 56 0.0 0.0 0.06 0.99 0.77 82 1008.9
20260506173015 57 0.0 0.0 0.00 0.94 0.72 80 1008.7
20260506171513 58 0.0 0.0 0.00 0.94 0.72 79 1008.3
20260506170007 58 0.0 0.0 0.00 0.94 0.72 78 1008.1
20260506164502 58 0.0 0.0 0.00 0.95 0.72 79 1007.8
20260506163106 58 0.0 0.0 0.00 0.95 0.72 78 1008.0
20260506161605 58 0.0 0.0 0.00 0.95 0.72 78 1008.1
20260506160050 59 0.0 0.0 0.00 0.95 0.72 77 1008.0
20260506154606 59 0.0 0.0 0.00 0.95 0.72 78 1008.1
20260506153041 60 0.0 0.0 0.00 0.95 0.72 74 1008.0
20260506151538 61 0.0 0.0 0.00 0.95 0.72 71 1008.1
20260506150032 61 0.0 0.0 0.00 0.95 0.72 73 1008.0
20260506144527 61 0.0 0.0 0.00 0.95 0.72 75 1008.1
20260506143023 61 0.0 0.0 0.00 0.95 0.72 74 1008.3
20260506141519 60 0.0 0.0 0.00 0.95 0.72 77 1008.4
20260506140021 60 0.0 0.0 0.00 0.95 0.72 82 1008.5
20260506134510 60 0.0 0.0 0.00 0.95 0.72 84 1008.6
20260506133006 59 0.0 0.0 0.00 0.95 0.72 84 1008.7
20260506131502 58 0.0 0.0 0.00 0.95 0.72 84 1008.8
20260506130059 58 0.0 0.0 0.00 0.95 0.72 88 1008.8
20260506124555 57 0.0 0.0 0.00 0.96 0.72 91 1008.8
20260506123049 56 0.0 0.0 0.00 0.96 0.72 93 1008.9
20260506121544 55 0.0 0.0 0.00 0.96 0.72 95 1009.0
20260506120045 55 0.0 0.0 0.00 0.96 0.72 96 1009.0
20260506114536 54 0.0 0.0 0.00 1.18 0.72 96 1009.1
20260506113033 53 0.0 0.0 0.00 1.18 0.72 96 1009.2
20260506111527 53 0.0 0.0 0.00 1.18 0.72 96 1009.3
20260506110023 53 0.0 0.0 0.00 1.18 0.72 96 1009.3
20260506104518 53 0.0 0.0 0.01 1.18 0.72 96 1009.3
20260506103014 53 0.0 0.0 0.02 1.18 0.72 96 1009.4
20260506101509 54 0.0 0.0 0.02 1.18 0.72 96 1009.3
20260506100006 53 0.0 0.0 0.04 1.18 0.72 96 1009.3
20260506094503 52 0.0 0.0 0.05 1.17 0.71 96 1009.2
20260506093056 52 0.0 0.0 0.06 1.17 0.70 96 1009.0
20260506091557 52 0.0 0.0 0.08 1.15 0.69 96 1008.9
20260506090048 51 0.0 0.0 0.09 1.13 0.68 96 1008.7
20260506084545 52 0.0 0.0 0.09 1.12 0.66 96 1008.6
20260506083039 51 0.0 0.0 0.10 1.10 0.64 96 1008.4
20260506081535 51 0.0 0.0 0.13 1.08 0.61 96 1008.3
20260506073022 51 0.0 0.0 0.15 1.00 0.54 96 1007.8
20260506071518 51 0.0 0.0 0.13 0.95 0.49 96 1007.7
20260506061505 51 0.0 0.0 0.12 0.82 0.35 95 1006.9